Vorticity
2 3 4 6 5 6 4 3 6 9 9 10 10 9 10 7 4 3 4 4 7 6 4 5 5 8 12 8 3 4 -1 14 0 11 -2 7 2 2 2 9 6 6 7 5 8
3 3 1 4 7 7 7 9 7 6 6 9 7 10 10 9 8 6 4 4 3 4 5 5 9 9 14 10 3 3 8 -2 -22 24 20 9 17 3 6 4 3 5 6 6 6
2 3 2 5 5 2 4 4 9 12 8 7 7 8 6 9 9 11 7 5 4 3 2 4 5 7 8 8 6 4 4 -5 -7 46 7 5 -11 4 7 3 4 5 7 6 5
3 4 3 3 6 4 4 3 5 8 8 10 11 6 7 5 5 9 8 7 5 4 3 3 3 5 9 5 6 7 1 8 -4 38 10 1 13 5 6 11 7 3 7 6 4
2 2 4 5 5 2 2 5 4 3 8 12 6 2 8 4 10 5 6 6 7 5 4 4 3 4 6 7 9 5 -5 -17 0 47 4 5 -6 11 2 -1 2 4 5 5 5
9 6 7 7 6 5 4 3 5 5 6 6 9 6 9 -1 7 5 7 7 5 8 5 4 3 3 4 5 12 8 -5 -5 4 4 -2 2 9 14 -1 7 6 4 6 6 5
5 4 4 4 4 5 8 7 8 7 7 6 5 6 11 4 7 7 5 5 5 8 6 4 3 3 5 7 9 7 3 0 21 20 8 15 5 18 10 -0 -5 5 9 5 8
8 8 9 11 13 13 11 11 8 7 8 9 7 7 12 10 11 10 8 4 5 6 8 5 6 4 5 5 7 4 5 -34 -5 -5 26 19 -7 15 11 -3 10 4 11 4 5
10 9 9 10 11 12 13 9 6 6 7 6 8 9 11 11 12 13 13 14 13 10 7 8 9 3 5 8 11 9 3 8 6 7 28 3 6 -4 8 6 2 10 5 6 3
7 9 10 11 10 7 6 4 8 8 8 8 11 11 10 4 11 16 7 13 13 12 12 9 10 9 5 11 11 5 6 -17 -2 1 14 8 -25 7 3 9 14 1 6 6 3
8 11 12 10 10 7 5 7 10 10 10 10 10 9 5 10 11 10 13 8 13 14 12 11 10 13 14 8 11 4 6 3 -15 18 37 63 22 20 13 5 -3 4 2 10 4
8 10 13 12 6 8 5 13 8 8 12 8 12 7 11 12 11 10 11 12 15 12 10 13 13 14 11 9 9 2 27 2 -6 30 -14 2 20 6 -8 10 7 6 10 7 11
8 9 13 12 9 7 12 8 9 11 9 13 8 11 8 12 13 14 18 13 16 12 12 11 15 8 10 12 10 10 4 10 2 -6 -4 -9 44 28 -13 2 -10 8 1 14 27
9 12 16 15 3 8 10 9 9 10 12 9 9 14 20 13 17 20 16 19 19 12 12 11 10 13 13 11 11 7 3 10 -11 23 9 19 2 20 12 16 13 5 -4 9 -6
14 13 10 12 7 16 8 10 10 15 14 6 12 12 16 15 13 16 14 21 18 16 18 12 8 10 11 15 11 9 4 10 3 16 -0 7 35 22 -1 17 -6 19 -3 12 7
10 10 7 13 14 12 10 9 13 20 7 10 14 12 12 20 16 14 10 22 19 15 14 17 14 13 13 11 10 7 11 -1 -1 2 14 17 10 26 -5 -11 12 -4 -13 -5 8
9 12 5 14 14 10 10 8 15 7 10 9 9 5 10 8 13 11 21 20 15 20 13 16 14 11 16 10 7 10 -2 8 11 25 20 19 18 16 9 4 55 28 -4 7 3
12 10 7 12 13 12 9 12 11 10 2 5 7 10 10 4 15 -9 2 4 12 16 17 21 13 11 5 10 9 29 15 1 15 -43 3 10 26 7 29 33 -13 18 7 4 9
4 9 9 9 13 14 10 8 13 10 8 6 11 9 11 0 8 4 3 25 14 10 13 17 10 9 1 -2 9 13 16 11 9 22 8 3 10 9 -18 33 42 4 -4 -2 23
2 6 8 11 14 12 11 11 11 6 8 4 9 11 8 10 7 10 2 6 10 11 12 14 5 12 6 -8 3 -5 4 10 10 22 -18 -13 -28 70 12 11 35 10 29 17 13
8 5 9 14 9 14 11 15 8 4 14 1 10 5 8 9 9 1 12 -3 24 19 9 7 22 4 8 18 11 11 -1 -1 -1 13 -1 10 4 -20 35 7 14 31 15 6 7
7 8 8 17 13 15 16 11 9 5 6 14 3 8 10 8 11 8 14 17 26 7 15 6 25 2 -10 -0 5 25 9 11 7 17 12 -2 8 3 -4 4 13 11 9 10 19
8 7 5 12 13 16 13 7 7 3 3 9 12 11 9 12 12 15 11 17 22 2 10 13 15 13 4 9 -4 5 14 8 8 11 11 1 16 3 14 -12 12 27 15 19 25
10 7 8 11 13 11 8 11 7 4 3 10 6 8 13 14 23 15 21 17 34 13 5 9 13 10 8 2 23 4 2 11 3 2 2 8 10 18 10 18 -1 -4 4 18 18
9 9 8 5 12 10 8 16 3 18 1 7 4 9 9 14 7 8 10 14 9 27 22 27 11 -3 16 -4 18 2 -2 11 5 3 4 8 1 2 15 5 5 -7 -6 0 22
7 9 7 4 9 15 3 6 9 12 7 6 11 4 12 13 11 4 6 21 21 18 25 22 29 12 -1 2 34 4 -2 9 18 8 7 -5 -1 3 -0 1 -3 8 8 2 -3
9 8 8 6 10 13 3 9 11 1 11 12 2 1 12 6 7 -0 9 11 8 23 19 9 26 38 18 10 8 14 1 13 11 20 -3 -1 0 3 8 8 2 4 20 15 16
Height
5886 5885 5884 5883 5882 5881 5880 5879 5878 5878 5877 5876 5876 5876 5877 5878 5877 5878 5879 5879 5879 5879 5878 5879 5881 5882 5882 5884 5884 5885 5887 5888 5889 5890 5892 5892 5892 5893 5896 5897 5898 5897 5897 5895 5893
5886 5886 5885 5884 5882 5881 5880 5879 5878 5877 5876 5875 5874 5874 5874 5874 5875 5876 5876 5877 5878 5878 5876 5877 5881 5882 5882 5884 5884 5885 5885 5886 5886 5887 5889 5890 5891 5892 5897 5897 5897 5898 5898 5896 5896
5886 5885 5884 5884 5882 5881 5880 5879 5877 5876 5875 5874 5873 5872 5872 5871 5872 5873 5873 5875 5875 5876 5876 5876 5878 5880 5882 5883 5886 5885 5886 5884 5884 5883 5888 5889 5890 5892 5895 5898 5898 5899 5898 5896 5896
5885 5884 5883 5882 5881 5880 5879 5877 5876 5875 5874 5873 5872 5871 5870 5869 5870 5869 5870 5871 5872 5873 5874 5874 5875 5877 5880 5881 5882 5884 5886 5885 5880 5881 5887 5889 5892 5892 5893 5897 5899 5901 5901 5897 5896
5882 5881 5880 5879 5878 5877 5876 5875 5874 5873 5871 5871 5870 5869 5867 5866 5867 5866 5866 5867 5869 5869 5870 5872 5872 5874 5877 5879 5879 5882 5883 5881 5878 5882 5886 5890 5890 5893 5894 5897 5899 5901 5902 5901 5899
5879 5878 5877 5876 5875 5874 5873 5871 5870 5869 5868 5867 5865 5865 5864 5863 5863 5862 5863 5864 5864 5865 5868 5868 5867 5869 5874 5878 5878 5880 5882 5882 5880 5882 5886 5889 5891 5892 5894 5896 5898 5901 5903 5902 5902
5875 5874 5873 5872 5870 5869 5868 5866 5865 5864 5863 5862 5861 5860 5860 5859 5858 5857 5857 5858 5860 5861 5863 5863 5863 5864 5871 5875 5876 5878 5881 5882 5880 5880 5881 5887 5892 5894 5896 5896 5898 5900 5903 5903 5904
5872 5870 5868 5866 5865 5864 5863 5861 5860 5858 5858 5856 5855 5855 5854 5853 5852 5852 5853 5853 5854 5856 5857 5858 5860 5862 5864 5872 5873 5875 5877 5875 5877 5874 5874 5882 5888 5892 5893 5895 5898 5900 5904 5904 5906
5868 5866 5864 5862 5860 5859 5857 5856 5855 5853 5851 5850 5849 5849 5848 5847 5846 5846 5845 5847 5848 5848 5850 5853 5856 5858 5862 5868 5873 5871 5872 5874 5874 5871 5870 5877 5883 5886 5892 5895 5896 5898 5902 5905 5905
5864 5861 5859 5857 5856 5854 5852 5851 5849 5848 5846 5845 5844 5844 5841 5841 5840 5840 5837 5840 5841 5842 5844 5849 5851 5854 5859 5866 5869 5865 5867 5870 5871 5869 5869 5874 5878 5882 5886 5893 5895 5896 5900 5905 5905
5860 5856 5854 5852 5851 5849 5848 5847 5847 5843 5840 5839 5837 5836 5835 5834 5833 5833 5833 5833 5835 5836 5839 5842 5847 5853 5858 5858 5859 5860 5864 5866 5868 5869 5867 5868 5873 5878 5882 5888 5890 5893 5898 5902 5902
5856 5853 5850 5848 5846 5844 5843 5842 5839 5837 5835 5833 5831 5830 5829 5828 5827 5826 5828 5828 5830 5832 5833 5840 5847 5848 5848 5849 5852 5856 5861 5864 5864 5865 5866 5865 5868 5870 5880 5883 5885 5889 5893 5897 5902
5851 5848 5845 5843 5841 5840 5838 5836 5835 5832 5830 5828 5826 5824 5822 5821 5821 5821 5821 5821 5824 5825 5830 5836 5839 5838 5841 5843 5848 5855 5857 5861 5862 5862 5862 5865 5864 5865 5876 5878 5881 5886 5888 5895 5898
5847 5843 5841 5838 5838 5835 5833 5831 5830 5828 5827 5826 5823 5820 5819 5817 5815 5816 5815 5818 5820 5820 5824 5829 5831 5836 5838 5841 5845 5850 5852 5855 5859 5858 5862 5863 5864 5857 5867 5876 5879 5883 5886 5890 5895
5842 5839 5837 5834 5832 5830 5829 5827 5825 5825 5824 5823 5820 5816 5816 5815 5812 5810 5811 5812 5814 5816 5821 5824 5827 5830 5835 5841 5841 5846 5850 5852 5857 5857 5859 5860 5859 5862 5866 5874 5876 5880 5883 5886 5891
5838 5835 5833 5831 5828 5826 5824 5822 5822 5823 5821 5819 5816 5813 5813 5811 5810 5809 5809 5810 5811 5814 5819 5823 5825 5828 5832 5833 5838 5842 5846 5849 5855 5856 5857 5856 5858 5858 5864 5871 5872 5874 5879 5882 5887
5834 5832 5830 5827 5825 5822 5819 5818 5819 5817 5817 5814 5812 5810 5810 5810 5810 5808 5808 5809 5811 5814 5817 5821 5822 5826 5830 5833 5835 5840 5843 5847 5853 5855 5853 5852 5853 5855 5857 5861 5863 5871 5875 5879 5883
5830 5828 5826 5823 5821 5818 5816 5815 5814 5815 5813 5811 5808 5808 5810 5811 5810 5809 5806 5806 5808 5811 5815 5818 5822 5826 5829 5832 5836 5838 5842 5846 5848 5850 5850 5849 5849 5850 5848 5850 5856 5865 5870 5872 5878
5826 5825 5822 5819 5816 5814 5813 5811 5812 5812 5812 5810 5808 5807 5806 5805 5807 5808 5807 5806 5805 5807 5810 5814 5819 5823 5827 5828 5832 5836 5840 5841 5844 5847 5850 5849 5848 5846 5849 5848 5851 5857 5863 5866 5874
5822 5821 5819 5815 5813 5811 5810 5808 5809 5809 5809 5808 5804 5806 5805 5804 5804 5804 5806 5805 5805 5806 5810 5813 5817 5821 5823 5826 5828 5832 5836 5839 5841 5845 5845 5847 5844 5844 5846 5848 5852 5855 5860 5864 5868
5816 5816 5814 5811 5809 5807 5806 5805 5805 5806 5806 5804 5801 5801 5802 5801 5801 5801 5801 5803 5804 5805 5806 5810 5813 5818 5819 5823 5826 5829 5830 5833 5836 5841 5843 5845 5848 5845 5846 5850 5851 5852 5852 5858 5861
5810 5810 5808 5807 5806 5803 5802 5801 5802 5803 5803 5801 5799 5797 5798 5797 5798 5798 5799 5799 5798 5801 5803 5805 5807 5811 5817 5818 5822 5825 5825 5829 5832 5838 5840 5842 5848 5847 5851 5853 5852 5852 5853 5855 5855
5802 5804 5803 5801 5800 5798 5798 5798 5797 5796 5797 5797 5796 5794 5792 5791 5791 5791 5791 5791 5791 5792 5796 5800 5803 5808 5813 5815 5818 5818 5821 5824 5829 5832 5836 5839 5845 5847 5850 5853 5853 5854 5853 5852 5852
5796 5796 5797 5794 5794 5792 5792 5792 5792 5791 5792 5791 5792 5790 5789 5788 5787 5786 5785 5785 5785 5786 5787 5794 5797 5800 5807 5809 5812 5814 5817 5821 5826 5830 5833 5838 5839 5844 5847 5851 5852 5853 5852 5851 5851
5789 5789 5789 5789 5787 5786 5788 5788 5788 5788 5788 5787 5788 5787 5786 5785 5784 5781 5780 5780 5780 5779 5781 5784 5790 5794 5798 5803 5807 5810 5814 5817 5822 5826 5831 5836 5836 5840 5844 5846 5848 5849 5852 5853 5855
5782 5782 5782 5782 5782 5782 5782 5782 5784 5784 5783 5784 5783 5782 5782 5783 5781 5779 5777 5776 5775 5772 5773 5775 5783 5788 5793 5795 5797 5804 5811 5815 5818 5821 5826 5829 5832 5835 5840 5843 5844 5845 5847 5851 5852
5774 5775 5775 5775 5775 5777 5777 5778 5781 5780 5779 5779 5779 5779 5779 5780 5778 5775 5775 5773 5772 5770 5771 5773 5777 5781 5787 5791 5794 5799 5803 5811 5813 5817 5821 5824 5828 5832 5835 5839 5841 5841 5842 5846 5847